Location: West Cummington
(42.4920°N, 72.9680°W)
Time: 15:17:21
(UTC-04:00)

Cosmos 2221 - Visible Passes

Search period start: 21 April 2018 00:00
Search period end: 01 May 2018 00:00
Orbit: 592 x 618 km, 82.5° (Epoch: 21 April)

Date Brightness Start Highest point End Pass type
(mag) Time Alt. Az. Time Alt. Az. Time Alt. Az.
21 Apr 4.8 20:30:42 10° SW 20:34:25 29° WNW 20:38:08 10° NNW visible
22 Apr 5.6 20:44:35 10° WSW 20:47:31 18° WNW 20:50:27 10° NNW visible
23 Apr 6.5 05:14:07 10° NE 05:15:09 11° ENE 05:16:10 10° E visible
23 Apr 6.2 20:59:29 10° W 21:00:41 11° WNW 21:01:53 10° NW visible
24 Apr 5.8 05:25:25 10° NNE 05:28:20 17° ENE 05:31:14 10° ESE visible
27 Apr 5.9 20:12:04 10° WSW 20:14:40 16° WNW 20:17:18 10° NNW visible
28 Apr 6.0 04:40:30 10° NE 04:42:21 12° ENE 04:44:11 10° E visible
29 Apr 5.6 04:52:18 10° NNE 04:55:30 20° ENE 04:58:43 10° ESE visible
30 Apr 4.7 05:04:41 10° NNE 05:08:36 32° ENE 05:12:30 10° SE visible
